Weather History for KLAL - June, 2014

Change the Weather History Date:

Wednesday, June 4, 2014

  Actual Average Record
Temperature  
Mean Temperature 79 °F -  
Max Temperature 87 °F 87 °F 100 °F (1985)
Min Temperature 71 °F 69 °F 63 °F (1988)
Cooling Degree Days 14    
Growing Degree Days 29 (Base 50)    
Moisture  
Dew Point 60 °F    
Average Humidity 61    
Maximum Humidity 73    
Minimum Humidity 33    
Precipitation  
Precipitation 0.00 in - - ()
Sea Level Pressure  
Sea Level Pressure 29.99 in    
Wind  
Wind Speed 4 mph (ESE)    
Max Wind Speed 10 mph    
Max Gust Speed -    
Visibility 10 miles    
Events      
Averages and records for this station are not official NWS values.
T = Trace of Precipitation, MM = Missing Value Source: NWS Daily Summary

Daily Weather History Graph

Daily Weather History Graph

Search for Another Location

Airport or City:

Trip Planner

Search our weather history database for the weather conditions in past years. The results will help you decide how hot, cold, wet, or windy it might be!

Date:

Astronomy

Jun. 04, 2014 Rise Set
Actual Time 6:31 AM EDT 8:21 PM EDT
Civil Twilight 6:05 AM EDT 8:48 PM EDT
Nautical Twilight 5:33 AM EDT 9:19 PM EDT
Astronomical Twilight 4:59 AM EDT 9:53 PM EDT
Moon 12:27 PM EDT (6/4) 12:40 AM EDT (6/4)
Length of Visible Light 14h 43m
Length of Day
13h 50m
Waxing Crescent, 39% of the Moon is Illuminated
Jun 4
Waxing Crescent
Jun 5
First Quarter
Jun 13
Full
Jun 19
Last Quarter
Jun 27
New

Hourly Weather History & Observations

Time (EDT) Temp. Heat Index Dew Point Humidity Pressure Visibility Wind Dir Wind Speed Gust Speed Precip Events Conditions
12:15 AM 71.6 °F - 60.8 °F 69% 30.03 in 10.0 mi ESE 4.6 mph - N/A   Clear
12:35 AM 71.6 °F - 60.8 °F 69% 30.03 in 10.0 mi ESE 4.6 mph - N/A   Scattered Clouds
12:55 AM 71.6 °F - 60.8 °F 69% 30.03 in 10.0 mi ESE 3.5 mph - N/A   Scattered Clouds
1:15 AM 71.6 °F - 60.8 °F 69% 30.02 in 10.0 mi ESE 3.5 mph - N/A   Overcast
1:35 AM 71.6 °F - 62.6 °F 73% 30.02 in 10.0 mi ESE 3.5 mph - N/A   Overcast
1:55 AM 71.6 °F - 62.6 °F 73% 30.01 in 10.0 mi East 3.5 mph - N/A   Overcast
2:15 AM 71.6 °F - 62.6 °F 73% 30.01 in 10.0 mi East 3.5 mph - N/A   Overcast
2:35 AM 71.6 °F - 62.6 °F 73% 30.00 in 10.0 mi East 4.6 mph - N/A   Overcast
2:55 AM 71.6 °F - 62.6 °F 73% 30.00 in 10.0 mi East 3.5 mph - N/A   Overcast
3:15 AM 71.6 °F - 62.6 °F 73% 30.00 in 10.0 mi Calm Calm - N/A   Overcast
3:35 AM 71.6 °F - 62.6 °F 73% 30.00 in 10.0 mi Calm Calm - N/A   Overcast
3:55 AM 71.6 °F - 62.6 °F 73% 29.99 in 10.0 mi Calm Calm - N/A   Overcast
4:15 AM 71.6 °F - 62.6 °F 73% 29.99 in 10.0 mi Calm Calm - N/A   Overcast
4:35 AM 71.6 °F - 62.6 °F 73% 29.99 in 10.0 mi Calm Calm - N/A   Overcast
5:15 AM 71.6 °F - 62.6 °F 73% 29.99 in 10.0 mi East 3.5 mph - N/A   Scattered Clouds
5:35 AM 71.6 °F - 60.8 °F 69% 29.99 in 10.0 mi Calm Calm - N/A   Clear
6:50 AM 71.6 °F - 62.6 °F 73% 30.00 in 10.0 mi East 3.5 mph - N/A   Overcast
8:50 AM 77.0 °F - 62.6 °F 61% 30.02 in 10.0 mi East 3.5 mph - N/A   Mostly Cloudy
9:50 AM 78.8 °F - 60.8 °F 54% 30.02 in 10.0 mi SE 5.8 mph - N/A   Scattered Clouds
10:50 AM 80.6 °F 81.5 °F 60.8 °F 51% 30.02 in 12.0 mi East 5.8 mph - N/A   Mostly Cloudy
11:50 AM 82.4 °F 82.9 °F 60.8 °F 48% 30.02 in 12.0 mi ENE 6.9 mph - N/A   Mostly Cloudy
12:50 PM 84.2 °F 83.5 °F 57.2 °F 40% 30.01 in 12.0 mi ESE 8.1 mph - N/A   Mostly Cloudy
1:50 PM 82.4 °F 82.0 °F 57.2 °F 42% 30.00 in 12.0 mi East 5.8 mph - N/A   Scattered Clouds
2:50 PM 84.2 °F 83.0 °F 55.4 °F 37% 29.98 in 10.0 mi East 4.6 mph - N/A   Scattered Clouds
3:45 PM 86.0 °F 84.2 °F 53.6 °F 33% 29.97 in 10.0 mi ESE 5.8 mph - N/A   Scattered Clouds
4:45 PM 87.8 °F 86.1 °F 55.4 °F 33% 29.95 in 10.0 mi Calm Calm - N/A   Scattered Clouds
5:47 PM 87.8 °F 86.1 °F 55.4 °F 33% 29.95 in 10.0 mi NE 4.6 mph - N/A   Scattered Clouds
6:45 PM 86.0 °F 84.5 °F 55.4 °F 35% 29.93 in 10.0 mi Calm Calm - N/A   Scattered Clouds
8:45 PM 80.6 °F 81.1 °F 59.0 °F 48% 29.93 in 10.0 mi SE 4.6 mph - N/A   Clear
9:45 PM 77.0 °F - 60.8 °F 57% 29.95 in 10.0 mi ESE 4.6 mph - N/A   Clear
10:15 PM 75.2 °F - 60.8 °F 61% 29.96 in 10.0 mi ESE 5.8 mph - N/A   Clear
10:35 PM 73.4 °F - 60.8 °F 65% 29.97 in 10.0 mi ESE 10.4 mph - N/A   Clear
10:55 PM 75.2 °F - 60.8 °F 61% 29.97 in 10.0 mi ESE 8.1 mph - N/A   Clear
11:15 PM 73.4 °F - 60.8 °F 65% 29.97 in 10.0 mi ESE 9.2 mph - N/A   Clear
11:35 PM 73.4 °F - 60.8 °F 65% 29.97 in 10.0 mi ESE 6.9 mph - N/A   Clear
11:55 PM 71.6 °F - 60.8 °F 69% 29.98 in 10.0 mi West 3.5 mph - N/A   Clear